Year,Month,Day,Hour,Minute,Value (Times are PST for temperature in C)
2016,03,29,00,00,3.80
2016,03,29,00,01,3.80
2016,03,29,00,02,3.80
2016,03,29,00,03,3.80
2016,03,29,00,04,3.80
2016,03,29,00,05,3.80
2016,03,29,00,06,3.70
2016,03,29,00,07,3.70
2016,03,29,00,08,3.70
2016,03,29,00,09,3.70
2016,03,29,00,10,3.70
2016,03,29,00,11,3.70
2016,03,29,00,12,3.70
2016,03,29,00,13,3.70
2016,03,29,00,14,3.70
2016,03,29,00,15,3.60
2016,03,29,00,16,3.60
2016,03,29,00,17,3.60
2016,03,29,00,18,3.60
2016,03,29,00,19,3.60
2016,03,29,00,20,3.60
2016,03,29,00,21,3.60
2016,03,29,00,22,3.60
2016,03,29,00,23,3.60
2016,03,29,00,24,3.60
2016,03,29,00,25,3.60
2016,03,29,00,26,3.60
2016,03,29,00,27,3.60
2016,03,29,00,28,3.60
2016,03,29,00,29,3.60
2016,03,29,00,30,3.60
2016,03,29,00,31,3.60
2016,03,29,00,32,3.60
2016,03,29,00,33,3.60
2016,03,29,00,34,3.50
2016,03,29,00,35,3.50
2016,03,29,00,36,3.50
2016,03,29,00,37,3.50
2016,03,29,00,38,3.50
2016,03,29,00,39,3.50
2016,03,29,00,40,3.40
2016,03,29,00,41,3.40
2016,03,29,00,42,3.40
2016,03,29,00,43,3.40
2016,03,29,00,44,3.40
2016,03,29,00,45,3.40
2016,03,29,00,46,3.40
2016,03,29,00,47,3.30
2016,03,29,00,48,3.30
2016,03,29,00,49,3.30
2016,03,29,00,50,3.30
2016,03,29,00,51,3.30
2016,03,29,00,52,3.30
2016,03,29,00,53,3.30
2016,03,29,00,54,3.30
2016,03,29,00,55,3.30
2016,03,29,00,56,3.30
2016,03,29,00,57,3.30
2016,03,29,00,58,3.30
2016,03,29,00,59,3.30
2016,03,29,01,00,3.30
2016,03,29,01,01,3.30
2016,03,29,01,02,3.30
2016,03,29,01,03,3.30
2016,03,29,01,04,3.30
2016,03,29,01,05,3.30
2016,03,29,01,06,3.30
2016,03,29,01,07,3.30
2016,03,29,01,08,3.30
2016,03,29,01,09,3.30
2016,03,29,01,10,3.30
2016,03,29,01,11,3.20
2016,03,29,01,12,3.20
2016,03,29,01,13,3.20
2016,03,29,01,14,3.20
2016,03,29,01,15,3.20
2016,03,29,01,16,3.20
2016,03,29,01,17,3.20
2016,03,29,01,18,3.20
2016,03,29,01,19,3.10
2016,03,29,01,20,3.10
2016,03,29,01,21,3.10
2016,03,29,01,22,3.10
2016,03,29,01,23,3.10
2016,03,29,01,24,3.10
2016,03,29,01,25,3.10
2016,03,29,01,26,3.10
2016,03,29,01,27,3.10
2016,03,29,01,28,3.10
2016,03,29,01,29,3.10
2016,03,29,01,30,3.10
2016,03,29,01,31,3.10
2016,03,29,01,32,3.10
2016,03,29,01,33,3.10
2016,03,29,01,34,3.00
2016,03,29,01,35,3.00
2016,03,29,01,36,3.00
2016,03,29,01,37,3.00
2016,03,29,01,38,3.00
2016,03,29,01,39,3.00
2016,03,29,01,40,2.90
2016,03,29,01,41,2.90
2016,03,29,01,42,2.90
2016,03,29,01,43,2.90
2016,03,29,01,44,2.90
2016,03,29,01,45,2.90
2016,03,29,01,46,2.90
2016,03,29,01,47,2.90
2016,03,29,01,48,2.90
2016,03,29,01,49,2.90
2016,03,29,01,50,2.90
2016,03,29,01,51,2.90
2016,03,29,01,52,2.90
2016,03,29,01,53,2.90
2016,03,29,01,54,2.80
2016,03,29,01,55,2.80
2016,03,29,01,56,2.80
2016,03,29,01,57,2.80
2016,03,29,01,58,2.80
2016,03,29,01,59,2.80
2016,03,29,02,00,2.80
2016,03,29,02,01,2.80
2016,03,29,02,02,2.80
2016,03,29,02,03,2.80
2016,03,29,02,04,2.80
2016,03,29,02,05,2.80
2016,03,29,02,06,2.70
2016,03,29,02,07,2.70
2016,03,29,02,08,2.70
2016,03,29,02,09,2.70
2016,03,29,02,10,2.70
2016,03,29,02,11,2.70
2016,03,29,02,12,2.70
2016,03,29,02,13,2.70
2016,03,29,02,14,2.60
2016,03,29,02,15,2.70
2016,03,29,02,16,2.70
2016,03,29,02,17,2.70
2016,03,29,02,18,2.70
2016,03,29,02,19,2.70
2016,03,29,02,20,2.70
2016,03,29,02,21,2.70
2016,03,29,02,22,2.70
2016,03,29,02,23,2.70
2016,03,29,02,24,2.70
2016,03,29,02,25,2.60
2016,03,29,02,26,2.60
2016,03,29,02,27,2.60
2016,03,29,02,28,2.60
2016,03,29,02,29,2.60
2016,03,29,02,30,2.60
2016,03,29,02,31,2.60
2016,03,29,02,32,2.60
2016,03,29,02,33,2.60
2016,03,29,02,34,2.60
2016,03,29,02,35,2.70
2016,03,29,02,36,2.60
2016,03,29,02,37,2.60
2016,03,29,02,38,2.60
2016,03,29,02,39,2.60
2016,03,29,02,40,2.60
2016,03,29,02,41,2.60
2016,03,29,02,42,2.60
2016,03,29,02,43,2.60
2016,03,29,02,44,2.50
2016,03,29,02,45,2.50
2016,03,29,02,46,2.50
2016,03,29,02,47,2.50
2016,03,29,02,48,2.50
2016,03,29,02,49,2.50
2016,03,29,02,50,2.50
2016,03,29,02,51,2.50
2016,03,29,02,52,2.50
2016,03,29,02,53,2.50
2016,03,29,02,54,2.50
2016,03,29,02,55,2.50
2016,03,29,02,56,2.50
2016,03,29,02,57,2.50
2016,03,29,02,58,2.50
2016,03,29,02,59,2.40
2016,03,29,03,00,2.40
2016,03,29,03,01,2.40
2016,03,29,03,02,2.40
2016,03,29,03,03,2.40
2016,03,29,03,04,2.30
2016,03,29,03,05,2.30
2016,03,29,03,06,2.30
2016,03,29,03,07,2.30
2016,03,29,03,08,2.30
2016,03,29,03,09,2.30
2016,03,29,03,10,2.30
2016,03,29,03,11,2.30
2016,03,29,03,12,2.30
2016,03,29,03,13,2.20
2016,03,29,03,14,2.20
2016,03,29,03,15,2.20
2016,03,29,03,16,2.20
2016,03,29,03,17,2.10
2016,03,29,03,18,2.10
2016,03,29,03,19,2.10
2016,03,29,03,20,2.10
2016,03,29,03,21,2.10
2016,03,29,03,22,2.10
2016,03,29,03,23,2.10
2016,03,29,03,24,2.10
2016,03,29,03,25,2.00
2016,03,29,03,26,2.00
2016,03,29,03,27,2.00
2016,03,29,03,28,2.00
2016,03,29,03,29,1.90
2016,03,29,03,30,1.90
2016,03,29,03,31,1.90
2016,03,29,03,32,1.90
2016,03,29,03,33,1.90
2016,03,29,03,34,1.90
2016,03,29,03,35,1.90
2016,03,29,03,36,1.90
2016,03,29,03,37,1.90
2016,03,29,03,38,1.90
2016,03,29,03,39,1.90
2016,03,29,03,40,2.00
2016,03,29,03,41,2.00
2016,03,29,03,42,2.00
2016,03,29,03,43,2.10
2016,03,29,03,44,2.10
2016,03,29,03,45,2.10
2016,03,29,03,46,2.10
2016,03,29,03,47,2.10
2016,03,29,03,48,2.10
2016,03,29,03,49,2.10
2016,03,29,03,50,2.10
2016,03,29,03,51,2.10
2016,03,29,03,52,2.10
2016,03,29,03,53,2.00
2016,03,29,03,54,2.00
2016,03,29,03,55,2.00
2016,03,29,03,56,2.00
2016,03,29,03,57,2.00
2016,03,29,03,58,1.90
2016,03,29,03,59,1.90
2016,03,29,04,00,1.90
2016,03,29,04,01,1.90
2016,03,29,04,02,1.90
2016,03,29,04,03,1.90
2016,03,29,04,04,1.90
2016,03,29,04,05,1.90
2016,03,29,04,06,1.90
2016,03,29,04,07,1.90
2016,03,29,04,08,1.90
2016,03,29,04,09,1.90
2016,03,29,04,10,1.80
2016,03,29,04,11,1.80
2016,03,29,04,12,1.80
2016,03,29,04,13,1.80
2016,03,29,04,14,1.80
2016,03,29,04,15,1.80
2016,03,29,04,16,1.80
2016,03,29,04,17,1.80
2016,03,29,04,18,1.70
2016,03,29,04,19,1.70
2016,03,29,04,20,1.70
2016,03,29,04,21,1.60
2016,03,29,04,22,1.60
2016,03,29,04,23,1.50
2016,03,29,04,24,1.50
2016,03,29,04,25,1.50
2016,03,29,04,26,1.40
2016,03,29,04,27,1.40
2016,03,29,04,28,1.40
2016,03,29,04,29,1.40
2016,03,29,04,30,1.40
2016,03,29,04,31,1.40
2016,03,29,04,32,1.40
2016,03,29,04,33,1.50
2016,03,29,04,34,1.50
2016,03,29,04,35,1.60
2016,03,29,04,36,1.60
2016,03,29,04,37,1.60
2016,03,29,04,38,1.70
2016,03,29,04,39,1.70
2016,03,29,04,40,1.70
2016,03,29,04,41,1.70
2016,03,29,04,42,1.70
2016,03,29,04,43,1.70
2016,03,29,04,44,1.70
2016,03,29,04,45,1.70
2016,03,29,04,46,1.60
2016,03,29,04,47,1.60
2016,03,29,04,48,1.60
2016,03,29,04,49,1.50
2016,03,29,04,50,1.50
2016,03,29,04,51,1.50
2016,03,29,04,52,1.50
2016,03,29,04,53,1.40
2016,03,29,04,54,1.50
2016,03,29,04,55,1.40
2016,03,29,04,56,1.40
2016,03,29,04,57,1.40
2016,03,29,04,58,1.40
2016,03,29,04,59,1.50
2016,03,29,05,00,1.50
2016,03,29,05,01,1.50
2016,03,29,05,02,1.60
2016,03,29,05,03,1.60
2016,03,29,05,04,1.60
2016,03,29,05,05,1.60
2016,03,29,05,06,1.70
2016,03,29,05,07,1.70
2016,03,29,05,08,1.70
2016,03,29,05,09,1.70
2016,03,29,05,10,1.70
2016,03,29,05,11,1.70
2016,03,29,05,12,1.70
2016,03,29,05,13,1.70
2016,03,29,05,14,1.70
2016,03,29,05,15,1.70
2016,03,29,05,16,1.70
2016,03,29,05,17,1.60
2016,03,29,05,18,1.60
2016,03,29,05,19,1.60
2016,03,29,05,20,1.50
2016,03,29,05,21,1.50
2016,03,29,05,22,1.40
2016,03,29,05,23,1.40
2016,03,29,05,24,1.30
2016,03,29,05,25,1.30
2016,03,29,05,26,1.30
2016,03,29,05,27,1.30
2016,03,29,05,28,1.20
2016,03,29,05,29,1.20
2016,03,29,05,30,1.20
2016,03,29,05,31,1.20
2016,03,29,05,32,1.20
2016,03,29,05,33,1.20
2016,03,29,05,34,1.20
2016,03,29,05,35,1.20
2016,03,29,05,36,1.20
2016,03,29,05,37,1.20
2016,03,29,05,38,1.20
2016,03,29,05,39,1.20
2016,03,29,05,40,1.20
2016,03,29,05,41,1.20
2016,03,29,05,42,1.10
2016,03,29,05,43,1.10
2016,03,29,05,44,1.10
2016,03,29,05,45,1.10
2016,03,29,05,46,1.10
2016,03,29,05,47,1.10
2016,03,29,05,48,1.10
2016,03,29,05,49,1.10
2016,03,29,05,50,1.20
2016,03,29,05,51,1.20
2016,03,29,05,52,1.20
2016,03,29,05,53,1.20
2016,03,29,05,54,1.20
2016,03,29,05,55,1.20
2016,03,29,05,56,1.20
2016,03,29,05,57,1.20
2016,03,29,05,58,1.20
2016,03,29,05,59,1.20
2016,03,29,06,00,1.20
2016,03,29,06,01,1.20
2016,03,29,06,02,1.20
2016,03,29,06,03,1.20
2016,03,29,06,04,1.20
2016,03,29,06,05,1.20
2016,03,29,06,06,1.20
2016,03,29,06,07,1.20
2016,03,29,06,08,1.20
2016,03,29,06,09,1.20
2016,03,29,06,10,1.10
2016,03,29,06,11,1.10
2016,03,29,06,12,1.10
2016,03,29,06,13,1.10
2016,03,29,06,14,1.10
2016,03,29,06,15,1.10
2016,03,29,06,16,1.00
2016,03,29,06,17,1.00
2016,03,29,06,18,1.00
2016,03,29,06,19,1.00
2016,03,29,06,20,1.00
2016,03,29,06,21,1.00
2016,03,29,06,22,1.00
2016,03,29,06,23,1.00
2016,03,29,06,24,1.00
2016,03,29,06,25,1.00
2016,03,29,06,26,1.00
2016,03,29,06,27,1.00
2016,03,29,06,28,0.90
2016,03,29,06,29,0.90
2016,03,29,06,30,0.90
2016,03,29,06,31,0.90
2016,03,29,06,32,0.90
2016,03,29,06,33,0.90
2016,03,29,06,34,0.90
2016,03,29,06,35,1.00
2016,03,29,06,36,1.00
2016,03,29,06,37,1.10
2016,03,29,06,38,1.10
2016,03,29,06,39,1.10
2016,03,29,06,40,1.10
2016,03,29,06,41,1.10
2016,03,29,06,42,1.10
2016,03,29,06,43,1.10
2016,03,29,06,44,1.10
2016,03,29,06,45,1.00
2016,03,29,06,46,1.00
2016,03,29,06,47,0.90
2016,03,29,06,48,0.90
2016,03,29,06,49,0.90
2016,03,29,06,50,0.90
2016,03,29,06,51,0.80
2016,03,29,06,52,0.80
2016,03,29,06,53,0.80
2016,03,29,06,54,0.80
2016,03,29,06,55,0.90
2016,03,29,06,56,0.90
2016,03,29,06,57,0.90
2016,03,29,06,58,0.90
2016,03,29,06,59,0.90
2016,03,29,07,00,0.90
2016,03,29,07,01,0.90
2016,03,29,07,02,0.90
2016,03,29,07,03,0.90
2016,03,29,07,04,0.90
2016,03,29,07,05,0.90
2016,03,29,07,06,0.90
2016,03,29,07,07,0.90
2016,03,29,07,08,0.90
2016,03,29,07,09,0.90
2016,03,29,07,10,0.90
2016,03,29,07,11,0.90
2016,03,29,07,12,0.90
2016,03,29,07,13,0.90
2016,03,29,07,14,1.00
2016,03,29,07,15,1.00
2016,03,29,07,16,1.00
2016,03,29,07,17,1.10
2016,03,29,07,18,1.10
2016,03,29,07,19,1.10
2016,03,29,07,20,1.20
2016,03,29,07,21,1.20
2016,03,29,07,22,1.30
2016,03,29,07,23,1.30
2016,03,29,07,24,1.30
2016,03,29,07,25,1.30
2016,03,29,07,26,1.30
2016,03,29,07,27,1.30
2016,03,29,07,28,1.30
2016,03,29,07,29,1.30
2016,03,29,07,30,1.30
2016,03,29,07,31,1.30
2016,03,29,07,32,1.30
2016,03,29,07,33,1.30
2016,03,29,07,34,1.30
2016,03,29,07,35,1.40
2016,03,29,07,36,1.40
2016,03,29,07,37,1.40
2016,03,29,07,38,1.40
2016,03,29,07,39,1.50
2016,03,29,07,40,1.60
2016,03,29,07,41,1.60
2016,03,29,07,42,1.60
2016,03,29,07,43,1.70
2016,03,29,07,44,1.70
2016,03,29,07,45,1.70
2016,03,29,07,46,1.80
2016,03,29,07,47,1.80
2016,03,29,07,48,1.90
2016,03,29,07,49,1.90
2016,03,29,07,50,2.00
2016,03,29,07,51,2.10
2016,03,29,07,52,2.10
2016,03,29,07,53,2.10
2016,03,29,07,54,2.20
2016,03,29,07,55,2.20
2016,03,29,07,56,2.20
2016,03,29,07,57,2.30
2016,03,29,07,58,2.30
2016,03,29,07,59,2.30
2016,03,29,08,00,2.40
2016,03,29,08,01,2.40
2016,03,29,08,02,2.50
2016,03,29,08,03,2.60
2016,03,29,08,04,2.70
2016,03,29,08,05,2.80
2016,03,29,08,06,2.80
2016,03,29,08,07,2.90
2016,03,29,08,08,3.00
2016,03,29,08,09,3.00
2016,03,29,08,10,3.10
2016,03,29,08,11,3.20
2016,03,29,08,12,3.30
2016,03,29,08,13,3.30
2016,03,29,08,14,3.40
2016,03,29,08,15,3.40
2016,03,29,08,16,3.50
2016,03,29,08,17,3.50
2016,03,29,08,18,3.60
2016,03,29,08,19,3.60
2016,03,29,08,20,3.70
2016,03,29,08,21,3.70
2016,03,29,08,22,3.80
2016,03,29,08,23,3.80
2016,03,29,08,24,3.90
2016,03,29,08,25,3.90
2016,03,29,08,26,4.00
2016,03,29,08,27,4.00
2016,03,29,08,28,4.10
2016,03,29,08,29,4.20
2016,03,29,08,30,4.30
2016,03,29,08,31,4.40
2016,03,29,08,32,4.50
2016,03,29,08,33,4.60
2016,03,29,08,34,4.60
2016,03,29,08,35,4.60
2016,03,29,08,36,4.70
2016,03,29,08,37,4.70
2016,03,29,08,38,4.80
2016,03,29,08,39,4.80
2016,03,29,08,40,4.80
2016,03,29,08,41,4.90
2016,03,29,08,42,5.00
2016,03,29,08,43,5.10
2016,03,29,08,44,5.20
2016,03,29,08,45,5.40
2016,03,29,08,46,5.50
2016,03,29,08,47,5.70
2016,03,29,08,48,5.80
2016,03,29,08,49,5.90
2016,03,29,08,50,6.10
2016,03,29,08,51,6.20
2016,03,29,08,52,6.30
2016,03,29,08,53,6.40
2016,03,29,08,54,6.50
2016,03,29,08,55,6.50
2016,03,29,08,56,6.60
2016,03,29,08,57,6.80
2016,03,29,08,58,6.90
2016,03,29,08,59,7.00
2016,03,29,09,00,7.20
2016,03,29,09,01,7.30
2016,03,29,09,02,7.40
2016,03,29,09,03,7.60
2016,03,29,09,04,7.70
2016,03,29,09,05,7.80
2016,03,29,09,06,7.90
2016,03,29,09,07,8.10
2016,03,29,09,08,8.20
2016,03,29,09,09,8.30
2016,03,29,09,10,8.50
2016,03,29,09,11,8.60
2016,03,29,09,12,8.70
2016,03,29,09,13,8.80
2016,03,29,09,14,8.90
2016,03,29,09,15,9.00
2016,03,29,09,16,9.10
2016,03,29,09,17,9.20
2016,03,29,09,18,9.30
2016,03,29,09,19,9.40
2016,03,29,09,20,9.40
2016,03,29,09,21,9.50
2016,03,29,09,22,9.60
2016,03,29,09,23,9.60
2016,03,29,09,24,9.70
2016,03,29,09,25,9.80
2016,03,29,09,26,9.80
2016,03,29,09,27,9.90
2016,03,29,09,28,10.00
2016,03,29,09,29,10.20
2016,03,29,09,30,10.30
2016,03,29,09,31,10.30
2016,03,29,09,32,10.40
2016,03,29,09,33,10.50
2016,03,29,09,34,10.60
2016,03,29,09,35,10.70
2016,03,29,09,36,10.80
2016,03,29,09,37,10.90
2016,03,29,09,38,11.00
2016,03,29,09,39,11.10
2016,03,29,09,40,11.20
2016,03,29,09,41,11.30
2016,03,29,09,42,11.40
2016,03,29,09,43,11.50
2016,03,29,09,44,11.60
2016,03,29,09,45,11.60
2016,03,29,09,46,11.70
2016,03,29,09,47,11.80
2016,03,29,09,48,11.90
2016,03,29,09,49,12.00
2016,03,29,09,50,12.10
2016,03,29,09,51,12.20
2016,03,29,09,52,12.30
2016,03,29,09,53,12.40
2016,03,29,09,54,12.50
2016,03,29,09,55,12.50
2016,03,29,09,56,12.60
2016,03,29,09,57,12.60
2016,03,29,09,58,12.60
2016,03,29,09,59,12.70
2016,03,29,10,00,12.70
2016,03,29,10,01,12.80
2016,03,29,10,02,12.80
2016,03,29,10,03,12.90
2016,03,29,10,04,13.00
2016,03,29,10,05,13.00
2016,03,29,10,06,13.10
2016,03,29,10,07,13.10
2016,03,29,10,08,13.20
2016,03,29,10,09,13.20
2016,03,29,10,10,13.30
2016,03,29,10,11,13.30
2016,03,29,10,12,13.30
2016,03,29,10,13,13.30
2016,03,29,10,14,13.40
2016,03,29,10,15,13.40
2016,03,29,10,16,13.40
2016,03,29,10,17,13.50
2016,03,29,10,18,13.60
2016,03,29,10,19,13.60
2016,03,29,10,20,13.60
2016,03,29,10,21,13.70
2016,03,29,10,22,13.70
2016,03,29,10,23,13.70
2016,03,29,10,24,13.70
2016,03,29,10,25,13.70
2016,03,29,10,26,13.70
2016,03,29,10,27,13.70
2016,03,29,10,28,13.80
2016,03,29,10,29,13.80
2016,03,29,10,30,13.70
2016,03,29,10,31,13.80
2016,03,29,10,32,13.70
2016,03,29,10,33,13.70
2016,03,29,10,34,13.80
2016,03,29,10,35,13.80
2016,03,29,10,36,13.80
2016,03,29,10,37,13.80
2016,03,29,10,38,13.90
2016,03,29,10,39,13.90
2016,03,29,10,40,13.90
2016,03,29,10,41,14.00
2016,03,29,10,42,14.10
2016,03,29,10,43,14.20
2016,03,29,10,44,14.20
2016,03,29,10,45,14.20
2016,03,29,10,46,14.20
2016,03,29,10,47,14.20
2016,03,29,10,48,14.20
2016,03,29,10,49,14.30
2016,03,29,10,50,14.30
2016,03,29,10,51,14.30
2016,03,29,10,52,14.40
2016,03,29,10,53,14.40
2016,03,29,10,54,14.50
2016,03,29,10,55,14.50
2016,03,29,10,56,14.60
2016,03,29,10,57,14.60
2016,03,29,10,58,14.60
2016,03,29,10,59,14.60
2016,03,29,11,00,14.60
2016,03,29,11,01,14.60
2016,03,29,11,02,14.60
2016,03,29,11,03,14.60
2016,03,29,11,04,14.70
2016,03,29,11,05,14.70
2016,03,29,11,06,14.70
2016,03,29,11,07,14.70
2016,03,29,11,08,14.80
2016,03,29,11,09,14.90
2016,03,29,11,10,14.90
2016,03,29,11,11,14.90
2016,03,29,11,12,14.90
2016,03,29,11,13,15.00
2016,03,29,11,14,15.00
2016,03,29,11,15,15.00
2016,03,29,11,16,15.00
2016,03,29,11,17,15.10
2016,03,29,11,18,15.10
2016,03,29,11,19,15.10
2016,03,29,11,20,15.10
2016,03,29,11,21,15.00
2016,03,29,11,22,15.00
2016,03,29,11,23,15.00
2016,03,29,11,24,15.10
2016,03,29,11,25,15.10
2016,03,29,11,26,15.10
2016,03,29,11,27,15.20
2016,03,29,11,28,15.20
2016,03,29,11,29,15.20
2016,03,29,11,30,15.20
2016,03,29,11,31,15.20
2016,03,29,11,32,15.30
2016,03,29,11,33,15.30
2016,03,29,11,34,15.30
2016,03,29,11,35,15.30
2016,03,29,11,36,15.30
2016,03,29,11,37,15.30
2016,03,29,11,38,15.20
2016,03,29,11,39,15.20
2016,03,29,11,40,15.20
2016,03,29,11,41,15.30
2016,03,29,11,42,15.30
2016,03,29,11,43,15.30
2016,03,29,11,44,15.30
2016,03,29,11,45,15.30
2016,03,29,11,46,15.30
2016,03,29,11,47,15.40
2016,03,29,11,48,15.40
2016,03,29,11,49,15.40
2016,03,29,11,50,15.30
2016,03,29,11,51,15.30
2016,03,29,11,52,15.30
2016,03,29,11,53,15.30
2016,03,29,11,54,15.40
2016,03,29,11,55,15.50
2016,03,29,11,56,15.50
2016,03,29,11,57,15.50
2016,03,29,11,58,15.50
2016,03,29,11,59,15.60
2016,03,29,12,00,15.60
2016,03,29,12,01,15.60
2016,03,29,12,02,15.60
2016,03,29,12,03,15.70
2016,03,29,12,04,15.70
2016,03,29,12,05,15.80
2016,03,29,12,06,15.90
2016,03,29,12,07,15.90
2016,03,29,12,08,15.90
2016,03,29,12,09,15.80
2016,03,29,12,10,15.80
2016,03,29,12,11,15.70
2016,03,29,12,12,15.70
2016,03,29,12,13,15.70
2016,03,29,12,14,15.80
2016,03,29,12,15,15.80
2016,03,29,12,16,15.90
2016,03,29,12,17,15.90
2016,03,29,12,18,16.00
2016,03,29,12,19,16.00
2016,03,29,12,20,15.90
2016,03,29,12,21,15.90
2016,03,29,12,22,15.90
2016,03,29,12,23,15.90
2016,03,29,12,24,15.80
2016,03,29,12,25,15.90
2016,03,29,12,26,15.90
2016,03,29,12,27,16.00
2016,03,29,12,28,15.90
2016,03,29,12,29,15.90
2016,03,29,12,30,15.90
2016,03,29,12,31,16.00
2016,03,29,12,32,16.00
2016,03,29,12,33,16.10
2016,03,29,12,34,16.10
2016,03,29,12,35,16.20
2016,03,29,12,36,16.20
2016,03,29,12,37,16.30
2016,03,29,12,38,16.30
2016,03,29,12,39,16.30
2016,03,29,12,40,16.40
2016,03,29,12,41,16.40
2016,03,29,12,42,16.40
2016,03,29,12,43,16.40
2016,03,29,12,44,16.30
2016,03,29,12,45,16.20
2016,03,29,12,46,16.20
2016,03,29,12,47,16.20
2016,03,29,12,48,16.20
2016,03,29,12,49,16.20
2016,03,29,12,50,16.10
2016,03,29,12,51,16.10
2016,03,29,12,52,16.10
2016,03,29,12,53,16.10
2016,03,29,12,54,16.10
2016,03,29,12,55,16.00
2016,03,29,12,56,15.90
2016,03,29,12,57,15.90
2016,03,29,12,58,15.90
2016,03,29,12,59,15.90
2016,03,29,13,00,15.90
2016,03,29,13,01,15.90
2016,03,29,13,02,15.80
2016,03,29,13,03,15.80
2016,03,29,13,04,15.80
2016,03,29,13,05,15.90
2016,03,29,13,06,15.90
2016,03,29,13,07,15.90
2016,03,29,13,08,15.90
2016,03,29,13,09,15.80
2016,03,29,13,10,15.80
2016,03,29,13,11,15.90
2016,03,29,13,12,16.00
2016,03,29,13,13,16.10
2016,03,29,13,14,16.20
2016,03,29,13,15,16.20
2016,03,29,13,16,16.20
2016,03,29,13,17,16.20
2016,03,29,13,18,16.30
2016,03,29,13,19,16.30
2016,03,29,13,20,16.40
2016,03,29,13,21,16.40
2016,03,29,13,22,16.40
2016,03,29,13,23,16.40
2016,03,29,13,24,16.40
2016,03,29,13,25,16.30
2016,03,29,13,26,16.30
2016,03,29,13,27,16.30
2016,03,29,13,28,16.40
2016,03,29,13,29,16.50
2016,03,29,13,30,16.50
2016,03,29,13,31,16.50
2016,03,29,13,32,16.40
2016,03,29,13,33,16.40
2016,03,29,13,34,16.40
2016,03,29,13,35,16.40
2016,03,29,13,36,16.40
2016,03,29,13,37,16.30
2016,03,29,13,38,16.30
2016,03,29,13,39,16.20
2016,03,29,13,40,16.20
2016,03,29,13,41,16.20
2016,03,29,13,42,16.30
2016,03,29,13,43,16.30
2016,03,29,13,44,16.30
2016,03,29,13,45,16.40
2016,03,29,13,46,16.40
2016,03,29,13,47,16.40
2016,03,29,13,48,16.40
2016,03,29,13,49,16.50
2016,03,29,13,50,16.60
2016,03,29,13,51,16.60
2016,03,29,13,52,16.70
2016,03,29,13,53,16.70
2016,03,29,13,54,16.70
2016,03,29,13,55,16.60
2016,03,29,13,56,16.60
2016,03,29,13,57,16.60
2016,03,29,13,58,16.60
2016,03,29,13,59,16.60
2016,03,29,14,00,16.70
2016,03,29,14,01,16.70
2016,03,29,14,02,16.70
2016,03,29,14,03,16.80
2016,03,29,14,04,16.80
2016,03,29,14,05,16.80
2016,03,29,14,06,16.80
2016,03,29,14,07,16.80
2016,03,29,14,08,16.80
2016,03,29,14,09,16.80
2016,03,29,14,10,16.60
2016,03,29,14,11,16.50
2016,03,29,14,12,16.50
2016,03,29,14,13,16.60
2016,03,29,14,14,16.70
2016,03,29,14,15,16.80
2016,03,29,14,16,16.80
2016,03,29,14,17,16.80
2016,03,29,14,18,16.90
2016,03,29,14,19,17.00
2016,03,29,14,20,17.10
2016,03,29,14,21,17.10
2016,03,29,14,22,17.10
2016,03,29,14,23,17.20
2016,03,29,14,24,17.20
2016,03,29,14,25,17.20
2016,03,29,14,26,17.30
2016,03,29,14,27,17.30
2016,03,29,14,28,17.30
2016,03,29,14,29,17.30
2016,03,29,14,30,17.40
2016,03,29,14,31,17.50
2016,03,29,14,32,17.40
2016,03,29,14,33,17.40
2016,03,29,14,34,17.40
2016,03,29,14,35,17.50
2016,03,29,14,36,17.50
2016,03,29,14,37,17.60
2016,03,29,14,38,17.50
2016,03,29,14,39,17.50
2016,03,29,14,40,17.50
2016,03,29,14,41,17.50
2016,03,29,14,42,17.60
2016,03,29,14,43,17.60
2016,03,29,14,44,17.50
2016,03,29,14,45,17.50
2016,03,29,14,46,17.40
2016,03,29,14,47,17.40
2016,03,29,14,48,17.40
2016,03,29,14,49,17.40
2016,03,29,14,50,17.30
2016,03,29,14,51,17.20
2016,03,29,14,52,17.10
2016,03,29,14,53,17.00
2016,03,29,14,54,17.00
2016,03,29,14,55,16.90
2016,03,29,14,56,17.00
2016,03,29,14,57,17.00
2016,03,29,14,58,16.90
2016,03,29,14,59,16.90
2016,03,29,15,00,16.90
2016,03,29,15,01,16.90
2016,03,29,15,02,16.80
2016,03,29,15,03,16.80
2016,03,29,15,04,16.80
2016,03,29,15,05,16.80
2016,03,29,15,06,16.80
2016,03,29,15,07,16.90
2016,03,29,15,08,16.90
2016,03,29,15,09,16.90
2016,03,29,15,10,16.90
2016,03,29,15,11,16.90
2016,03,29,15,12,16.90
2016,03,29,15,13,16.80
2016,03,29,15,14,16.80
2016,03,29,15,15,16.80
2016,03,29,15,16,16.80
2016,03,29,15,17,16.80
2016,03,29,15,18,16.80
2016,03,29,15,19,16.80
2016,03,29,15,20,16.80
2016,03,29,15,21,16.80
2016,03,29,15,22,16.80
2016,03,29,15,23,16.90
2016,03,29,15,24,16.90
2016,03,29,15,25,16.90
2016,03,29,15,26,16.90
2016,03,29,15,27,16.90
2016,03,29,15,28,16.90
2016,03,29,15,29,16.90
2016,03,29,15,30,16.80
2016,03,29,15,31,16.80
2016,03,29,15,32,16.80
2016,03,29,15,33,16.70
2016,03,29,15,34,16.70
2016,03,29,15,35,16.70
2016,03,29,15,36,16.60
2016,03,29,15,37,16.60
2016,03,29,15,38,16.50
2016,03,29,15,39,16.40
2016,03,29,15,40,16.40
2016,03,29,15,41,16.40
2016,03,29,15,42,16.40
2016,03,29,15,43,16.40
2016,03,29,15,44,16.40
2016,03,29,15,45,16.30
2016,03,29,15,46,16.30
2016,03,29,15,47,16.20
2016,03,29,15,48,16.20
2016,03,29,15,49,16.20
2016,03,29,15,50,16.20
2016,03,29,15,51,16.10
2016,03,29,15,52,16.10
2016,03,29,15,53,16.10
2016,03,29,15,54,16.10
2016,03,29,15,55,16.10
2016,03,29,15,56,16.10
2016,03,29,15,57,16.10
2016,03,29,15,58,16.10
2016,03,29,15,59,16.10
2016,03,29,16,00,16.10
2016,03,29,16,01,16.20
2016,03,29,16,02,16.20
2016,03,29,16,03,16.20
2016,03,29,16,04,16.20
2016,03,29,16,05,16.20
2016,03,29,16,06,16.20
2016,03,29,16,07,16.20
2016,03,29,16,08,16.10
2016,03,29,16,09,16.10
2016,03,29,16,10,16.10
2016,03,29,16,11,16.10
2016,03,29,16,12,16.10
2016,03,29,16,13,16.10
2016,03,29,16,14,16.10
2016,03,29,16,15,16.10
2016,03,29,16,16,16.10
2016,03,29,16,17,16.10
2016,03,29,16,18,16.10
2016,03,29,16,19,16.10
2016,03,29,16,20,16.10
2016,03,29,16,21,16.10
2016,03,29,16,22,16.10
2016,03,29,16,23,16.10
2016,03,29,16,24,16.10
2016,03,29,16,25,16.10
2016,03,29,16,26,16.10
2016,03,29,16,27,16.10
2016,03,29,16,28,16.10
2016,03,29,16,29,16.10
2016,03,29,16,30,16.10
2016,03,29,16,31,16.10
2016,03,29,16,32,16.10
2016,03,29,16,33,16.10
2016,03,29,16,34,16.10
2016,03,29,16,35,16.10
2016,03,29,16,36,16.10
2016,03,29,16,37,16.00
2016,03,29,16,38,16.00
2016,03,29,16,39,16.00
2016,03,29,16,40,16.00
2016,03,29,16,41,16.00
2016,03,29,16,42,16.00
2016,03,29,16,43,16.10
2016,03,29,16,44,16.10
2016,03,29,16,45,16.10
2016,03,29,16,46,16.10
2016,03,29,16,47,16.10
2016,03,29,16,48,16.10
2016,03,29,16,49,16.10
2016,03,29,16,50,16.10
2016,03,29,16,51,16.20
2016,03,29,16,52,16.20
2016,03,29,16,53,16.10
2016,03,29,16,54,16.10
2016,03,29,16,55,16.10
2016,03,29,16,56,16.10
2016,03,29,16,57,16.10
2016,03,29,16,58,16.00
2016,03,29,16,59,16.00
2016,03,29,17,00,16.00
2016,03,29,17,01,16.00
2016,03,29,17,02,15.90
2016,03,29,17,03,15.90
2016,03,29,17,04,15.90
2016,03,29,17,05,15.90
2016,03,29,17,06,15.90
2016,03,29,17,07,15.90
2016,03,29,17,08,15.90
2016,03,29,17,09,15.90
2016,03,29,17,10,15.90
2016,03,29,17,11,15.90
2016,03,29,17,12,15.90
2016,03,29,17,13,15.90
2016,03,29,17,14,16.00
2016,03,29,17,15,16.00
2016,03,29,17,16,16.00
2016,03,29,17,17,16.00
2016,03,29,17,18,16.00
2016,03,29,17,19,16.00
2016,03,29,17,20,16.00
2016,03,29,17,21,16.00
2016,03,29,17,22,16.00
2016,03,29,17,23,16.00
2016,03,29,17,24,16.00
2016,03,29,17,25,16.00
2016,03,29,17,26,16.10
2016,03,29,17,27,16.00
2016,03,29,17,28,16.00
2016,03,29,17,29,16.10
2016,03,29,17,30,16.00
2016,03,29,17,31,16.00
2016,03,29,17,32,16.10
2016,03,29,17,33,16.10
2016,03,29,17,34,16.10
2016,03,29,17,35,16.10
2016,03,29,17,36,16.00
2016,03,29,17,37,15.90
2016,03,29,17,38,15.90
2016,03,29,17,39,15.90
2016,03,29,17,40,15.80
2016,03,29,17,41,15.70
2016,03,29,17,42,15.70
2016,03,29,17,43,15.70
2016,03,29,17,44,15.60